Regional Weather Roundup
Issued by NWS

Home | Current Version | Previous Version | Graphics & Text | Print | Product List | Glossary On
Versions: 1 2 3 4 5 6 7 8 9 10 11 12 13 14 15 16 17 18 19 20 21 22 23 24 25 26 27 28 29 30 31 32 33 34 35 36 37 38 39 40 41 42 43 44 45 46 47 48 49 50
000
ASUS43 KLOT 251022
RWRIL

ILLINOIS REGIONAL WEATHER ROUNDUP
NATIONAL WEATHER SERVICE CHICAGO/ROMEOVILLE IL
500 AM CDT MON MAY 25 2015

NOTE: "FAIR" INDICATES FEW OR NO CLOUDS BELOW 12,000 FEET WITH NO
SIGNIFICANT WEATHER AND/OR OBSTRUCTIONS TO VISIBILITY.

* THESE STATIONS ARE NOT UNDER NWS QUALITY CONTROL. THEY ALSO MAY NOT
  REPORT WEATHER SUCH AS PRECIPITATION OR FOG.

ILZ001-002-007-009-015-016-024-251100-
NORTHWEST ILLINOIS

CITY           SKY/WX    TMP DP  RH WIND       PRES   REMARKS
MOLINE         CLOUDY    66  63  90 W8        29.75S
STERLING*      CLOUDY    68  63  83 S8G18     29.77S
SAVANNA*       LGT RAIN  68  65  88 S21G29    29.71F
$$

ILZ003-004-008-010-011-017-018-251100-
NORTH CENTRAL ILLINOIS

CITY           SKY/WX    TMP DP  RH WIND       PRES   REMARKS
ROCKFORD       CLOUDY    68  63  84 S22G32    29.79F
FREEPORT*      CLOUDY    66  64  91 S20G28    29.77S
ROCHELLE*      CLOUDY    66  63  90 S21       29.80F
DE KALB*       CLOUDY    65  61  89 S18       29.83S
PERU*          CLOUDY    69  64  85 S21G26    29.82S
$$

ILZ005-006-012>014-019>023-251100-
NORTHEAST ILLINOIS

CITY           SKY/WX    TMP DP  RH WIND       PRES   REMARKS
CHICAGO-OHARE  CLOUDY    71  62  73 S21G29    29.83F
CHICAGO-MIDWAY CLOUDY    73  63  70 S14G28    29.85S
AURORA         CLOUDY    69  61  75 S17G25    29.83F
LANSING*       CLOUDY    69  61  75 S12       29.88S
JOLIET*        CLOUDY    72  64  76 S17G25    29.85S
WAUKEGAN       CLOUDY    69  59  70 S10       29.82F
DUPAGE AIRPORT CLOUDY    69  62  78 S20G28    29.83F
KANKAKEE*      CLOUDY    70  65  84 S16       29.89S
WHEELING       CLOUDY    70  61  73 S13       29.84F
MORRIS*        CLOUDY    70  63  79 S22G29    29.84R
ROMEOVILLE*    CLOUDY    70  62  77 S25G36    29.85S
NORTHERLY ISL    N/A     72  61  68 S12         N/A
$$

LMZ740>746-251100-
SOUTHERN LAKE MICHIGAN

STATION/POSITION SKY/WX   TEMP    WIND        PRES    VSBY  WAVE
                          AIR SEA DIR/SP/G                  HT/PER
                          (F)     (DEG/KT/KT) (MB)    (MI)  (FT/S)
SOUTHERN BUOY              49 38  170/ 14/ 16 1011.3S         1/ 3
HARRISON CRIB              69     180/ 24/ 28   N/A
BURNHAM HARBOR             72     190/ 11/ 19   N/A
CALUMET HARBOR             72     180/  9/ 14   N/A
BURNS HARBOR               71     190/ 13/ 16 1012.5R
MICHIGAN CITY              72     150/ 13/ 18   N/A
MICHIGAN CITY 6N           63 53  190/  8/ 12   N/A           1/ 3
ST. JOSEPH                 65 54  200/ 10/ 12   N/A           2/ 3
$$

ILZ025>027-034>036-040-047-049-050-058-095>099-251100-
WEST-CENTRAL ILLINOIS

CITY           SKY/WX    TMP DP  RH WIND       PRES   REMARKS
QUINCY         CLOUDY    65  63  93 S10       29.84R
GALESBURG*     HVY RAIN  65  64  96 SW10      29.80R
MACOMB*        RAIN      65  64  97 SW10      29.84R
JACKSONVILLE*  CLOUDY    71  66  83 S17       29.85R
PITTSFIELD*    CLOUDY    67  64  90 SW10      29.86R
$$

ILZ028>032-037-038-041>044-048-051>054-059>061-251100-
CENTRAL ILLINOIS

CITY           SKY/WX    TMP DP  RH WIND       PRES   REMARKS
PONTIAC        CLOUDY    71  65  82 S20G28    29.87S
BLOOMINGTON    CLOUDY    70  66  88 S25G32    29.89R
DECATUR        CLOUDY    70  65  84 S17       29.90S
PEORIA         CLOUDY    70  65  84 S16G24    29.82R
LACON*         CLOUDY    68  64  85 S18G26    29.80S
LINCOLN*       CLOUDY    69  65  84 S15G24    29.85S
SPRINGFIELD    CLOUDY    69  65  86 S16       29.87R
TAYLORVILLE    CLOUDY    68  64  88 S15       29.90R
$$

ILZ033-039-045-046-055>057-062-063-251100-
EAST-CENTRAL ILLINOIS

CITY           SKY/WX    TMP DP  RH WIND       PRES   REMARKS
CHAMPAIGN      CLOUDY    70  65  84 S18G30    29.92R
DANVILLE*      CLOUDY    72  64  76 S18G28    29.91S
RANTOUL*       CLOUDY    72  67  84 S20G26    29.91S
MATTOON        LGT RAIN  69  66  90 S12G21    29.93S
PARIS*         LGT RAIN  71  65  82 S23       29.96S
$$

ILZ079-100>102-251100-
SOUTHWEST ILLINOIS

CITY           SKY/WX    TMP DP  RH WIND       PRES   REMARKS
ALTON          CLOUDY    69  69 100 S16G22    29.91R
BELLEVILLE     CLOUDY    70  68  94 S14       29.92R
CAHOKIA*       CLOUDY    70  65  84 S9        29.90R
SPARTA*        CLOUDY    68  66  94 S12G24    29.96S
$$

ILZ064>066-069>071-074>076-080>082-084>086-088>090-092>094-251100-
SOUTH-CENTRAL ILLINOIS

CITY           SKY/WX    TMP DP  RH WIND       PRES   REMARKS
CARBONDALE     CLOUDY    69  66  90 S14       29.99R
CAIRO*         DRIZZLE   68  67  97 S10G20    30.02R
EFFINGHAM*     RAIN      69  65  87 S10G16    29.97R
MARION         RAIN      70  68  94 S14G22    30.01R
MT. VERNON     CLOUDY    70  63  78 S12       29.99R
CENTRALIA*     LGT RAIN  67  65  93 S13G20    29.95F
SALEM*         LGT RAIN  71  67  88 S12G20    29.96S
METROPOLIS*    LGT RAIN  68  68 100 S10       30.03R
$$

ILZ067-068-072-073-078-083-087-091-251100-
SOUTHEAST ILLINOIS

CITY           SKY/WX    TMP DP  RH WIND       PRES   REMARKS
LAWRENCEVILLE  LGT RAIN  69  66  90 S16       30.00F
FLORA*         LGT RAIN  69  67  92 S15G22    29.98R
FAIRFIELD*     RAIN      68  67  96 S14       29.99R
HARRISBURG*    DRIZZLE   69  68  96 S10       30.03R
ROBINSON*      DRIZZLE   68  65  92 S17G23    30.00S
CARMI*         CLOUDY    68  63  83 S14       30.01R
$$

ABBREVIATIONS USED IN REMARKS
   TC - TEMPERATURE IN CELSIUS
  WCI - WIND CHILL INDEX
   HX - HEAT INDEX
  VSB - VISIBILITY
$$




USA.gov is the U.S. government's official web portal to all federal, state and local government web resources and services.